Location: Aldenham
(51.6667°N, 0.3500°W)
Time: 15:12:32
(UTC+00:00)

SR - Visible Passes

Search period start: 10 February 2026 00:00
Search period end: 20 February 2026 00:00
Orbit: 574 x 847 km, 66.7° (Epoch: 9 February)

Date Brightness Start Highest point End Pass type
(mag) Time Alt. Az. Time Alt. Az. Time Alt. Az.
11 Feb ? 05:54:25 10° S 05:58:11 32° ESE 06:02:07 10° NE visible
12 Feb ? 05:01:12 10° SE 05:03:41 15° ESE 05:06:13 10° ENE visible
12 Feb ? 06:40:25 10° SW 06:44:39 81° NW 06:49:09 10° NE visible
13 Feb ? 05:45:44 10° SSW 05:49:48 48° ESE 05:54:05 10° NE visible
14 Feb ? 04:51:50 10° SSE 04:55:11 23° ESE 04:58:38 10° ENE visible
14 Feb ? 06:32:14 10° SW 06:36:26 57° NW 06:40:54 10° NNE visible
15 Feb ? 04:00:07 10° ESE 04:00:46 10° ESE 04:01:26 10° E visible
15 Feb ? 05:37:14 10° SSW 05:41:28 72° SE 05:45:56 10° NE visible
16 Feb ? 04:44:07 17° S 04:46:43 34° ESE 04:50:44 10° NE visible
16 Feb ? 06:24:13 10° WSW 06:28:17 41° NW 06:32:37 10° NNE visible
17 Feb ? 03:51:15 15° SE 03:52:12 16° ESE 03:54:52 10° ENE visible
17 Feb ? 05:30:20 21° SW 05:33:12 79° NW 05:37:43 10° NE visible
18 Feb ? 04:37:18 41° SSE 04:38:19 50° ESE 04:42:39 10° NE visible
18 Feb ? 06:16:22 10° W 06:20:11 32° NW 06:24:19 10° NNE visible
19 Feb ? 03:44:10 23° ESE 03:44:10 23° ESE 03:47:13 10° ENE visible
19 Feb ? 05:23:14 32° WSW 05:24:58 55° NW 05:29:28 10° NNE visible
